Location: Arrodets-la-Barthe
(43.0306°N, 0.2829°E)
Time: 12:01:59
(UTC+00:00)

CSL-04 Rocket - Pass Details

Date: 01 June 2022
Orbit: 807 x 859 km, 98.9° (Epoch: 30 June)

Event Time Altitude Azimuth Distance (km) Brightness Sun altitude
Rises 20:07:12 0° 181° (S) 3,323 6.4 -6.2°
Reaches altitude 10° 20:09:37 10° 187° (S) 2,402 5.8 -6.5°
Maximum altitude 20:14:43 46° 261° (W) 1,093 4.7 -7.2°
Drops below altitude 10° 20:19:55 10° 334° (NNW) 2,450 7.4 -8.0°
Sets 20:22:24 0° 341° (NNW) 3,397 8.0 -8.3°
